Total_Precipitation_Accumulation
0.00 0.00 0.02 0.01 0.01 0.02 0.04 0.03 0.03 0.04 0.05 0.07 0.06 0.06 0.09 0.10 0.07 0.03 0.01 0.01 0.02 0.03 0.06 0.05 0.06 0.06 0.05 0.05 0.05 0.03 0.02 0.02 0.02 0.03 0.03 0.04 0.04 0.05 0.06 0.08 0.16 0.13 0.09
0.00 0.00 0.03 0.01 0.01 0.02 0.04 0.04 0.04 0.04 0.03 0.03 0.05 0.09 0.13 0.12 0.10 0.05 0.02 0.01 0.02 0.02 0.03 0.05 0.04 0.04 0.05 0.05 0.04 0.02 0.01 0.01 0.01 0.02 0.02 0.02 0.04 0.08 0.09 0.08 0.17 0.09 0.06
0.00 0.00 0.01 0.01 0.01 0.01 0.01 0.03 0.06 0.07 0.04 0.03 0.06 0.10 0.12 0.11 0.10 0.08 0.07 0.03 0.02 0.01 0.01 0.02 0.03 0.04 0.02 0.02 0.02 0.02 0.01 0.01 0.01 0.03 0.11 0.12 0.04 0.06 0.09 0.08 0.07 0.03 0.04
0.00 0.00 0.00 0.01 0.01 0.01 0.01 0.02 0.06 0.07 0.04 0.05 0.12 0.12 0.09 0.10 0.11 0.09 0.09 0.05 0.04 0.02 0.01 0.02 0.02 0.03 0.02 0.01 0.01 0.01 0.01 0.01 0.02 0.07 0.25 0.25 0.09 0.05 0.07 0.08 0.05 0.03 0.04
0.00 0.00 0.00 0.01 0.01 0.01 0.01 0.02 0.05 0.06 0.05 0.05 0.09 0.10 0.07 0.10 0.12 0.10 0.09 0.08 0.09 0.05 0.01 0.02 0.03 0.03 0.02 0.01 0.01 0.01 0.01 0.01 0.03 0.09 0.18 0.19 0.22 0.12 0.10 0.15 0.14 0.12 0.10
0.00 0.00 0.00 0.01 0.01 0.01 0.01 0.02 0.03 0.05 0.04 0.03 0.04 0.07 0.07 0.12 0.17 0.15 0.11 0.12 0.14 0.12 0.06 0.03 0.03 0.03 0.02 0.01 0.01 0.01 0.01 0.02 0.03 0.07 0.12 0.14 0.30 0.26 0.18 0.33 0.42 0.37 0.29
0.00 0.00 0.00 0.01 0.01 0.01 0.01 0.01 0.02 0.03 0.03 0.02 0.02 0.03 0.03 0.07 0.12 0.12 0.11 0.12 0.12 0.11 0.09 0.07 0.05 0.04 0.04 0.04 0.03 0.03 0.04 0.05 0.06 0.08 0.09 0.13 0.27 0.21 0.24 0.49 0.73 0.65 0.51
0.00 0.00 0.01 0.01 0.01 0.01 0.01 0.01 0.02 0.02 0.02 0.02 0.01 0.01 0.02 0.04 0.06 0.07 0.09 0.08 0.07 0.05 0.06 0.07 0.08 0.08 0.07 0.06 0.05 0.05 0.05 0.05 0.06 0.09 0.10 0.14 0.16 0.16 0.34 0.58 0.77 0.75 0.64
0.00 0.00 0.01 0.01 0.01 0.01 0.01 0.01 0.01 0.01 0.01 0.01 0.01 0.01 0.02 0.03 0.03 0.05 0.07 0.08 0.07 0.07 0.08 0.09 0.09 0.08 0.08 0.08 0.06 0.06 0.05 0.05 0.06 0.10 0.14 0.25 0.30 0.33 0.54 0.69 0.76 0.77 0.73
0.00 0.00 0.00 0.01 0.01 0.01 0.01 0.01 0.01 0.01 0.01 0.02 0.02 0.02 0.02 0.02 0.02 0.04 0.07 0.07 0.08 0.09 0.10 0.11 0.14 0.14 0.14 0.12 0.13 0.14 0.11 0.07 0.04 0.04 0.18 0.26 0.35 0.53 0.75 0.83 0.91 0.92 0.91
0.01 0.01 0.00 0.01 0.01 0.01 0.01 0.01 0.01 0.02 0.02 0.02 0.03 0.03 0.03 0.02 0.06 0.11 0.10 0.13 0.17 0.20 0.20 0.21 0.22 0.22 0.22 0.19 0.25 0.34 0.26 0.17 0.12 0.10 0.15 0.24 0.34 0.58 0.83 0.92 1.01 1.09 1.10
0.01 0.01 0.01 0.01 0.01 0.01 0.01 0.02 0.02 0.02 0.04 0.04 0.11 0.14 0.12 0.14 0.15 0.11 0.19 0.30 0.38 0.50 0.52 0.55 0.57 0.46 0.39 0.35 0.74 0.96 0.35 0.32 0.33 0.26 0.27 0.32 0.46 0.73 0.95 0.91 0.95 1.07 1.09
0.03 0.02 0.01 0.02 0.03 0.03 0.03 0.03 0.04 0.04 0.08 0.09 0.10 0.15 0.23 0.22 0.18 0.15 0.22 0.37 0.47 0.61 0.71 1.00 1.12 0.82 0.82 0.88 1.01 0.95 0.44 0.37 0.40 0.41 0.50 0.54 0.63 0.93 1.19 1.00 0.87 0.95 1.04
0.07 0.05 0.05 0.05 0.05 0.05 0.06 0.06 0.06 0.06 0.08 0.08 0.13 0.19 0.29 0.30 0.27 0.29 0.39 0.46 0.58 0.68 0.88 1.03 1.25 1.09 0.97 0.92 0.94 0.86 0.75 0.68 0.57 0.72 0.83 0.65 0.68 0.94 1.21 1.11 0.93 0.86 0.93
0.13 0.13 0.11 0.09 0.09 0.11 0.12 0.13 0.11 0.12 0.14 0.16 0.21 0.28 0.36 0.44 0.47 0.52 0.56 0.68 0.68 0.75 0.92 1.11 1.13 1.26 1.34 1.36 1.17 1.07 1.02 0.93 0.85 1.06 1.17 0.97 0.79 0.85 1.05 1.17 1.10 0.98 0.89
0.33 0.33 0.28 0.22 0.21 0.22 0.23 0.26 0.28 0.28 0.31 0.34 0.42 0.52 0.64 0.77 0.87 0.95 0.94 0.99 0.90 0.95 1.11 1.32 1.38 1.67 1.58 1.49 1.19 1.13 1.06 1.01 0.88 0.95 1.15 1.16 0.85 0.72 0.81 1.00 1.10 1.06 0.97
0.44 0.46 0.52 0.53 0.59 0.70 0.74 0.68 0.62 0.67 0.71 0.73 0.79 0.84 0.92 1.04 1.22 1.36 1.30 1.22 1.25 1.30 1.43 1.58 1.62 1.67 1.47 1.37 1.25 1.23 1.14 1.01 0.84 0.84 0.92 0.99 0.90 0.73 0.72 0.81 0.96 1.01 0.97
0.57 0.72 0.85 0.96 1.15 1.25 1.31 1.32 1.29 1.28 1.23 1.14 1.10 1.15 1.25 1.34 1.49 1.74 1.59 1.47 1.69 1.60 1.72 1.95 1.91 1.84 1.66 1.57 1.40 1.21 1.10 0.95 0.70 0.73 0.74 0.86 0.95 0.79 0.74 0.78 0.79 0.78 0.89
0.94 1.19 1.29 1.42 1.63 1.80 1.88 1.87 1.87 1.86 1.74 1.54 1.48 1.47 1.41 1.45 1.60 1.86 1.70 1.71 1.81 1.95 1.96 1.80 2.11 2.07 1.88 1.79 1.50 1.20 0.93 0.76 0.63 0.61 0.61 0.61 0.74 0.68 0.59 0.63 0.64 0.68 0.85
1.55 1.83 2.04 2.22 2.25 2.12 2.04 2.10 2.14 2.00 1.92 1.83 1.80 1.78 1.67 1.69 1.77 2.03 1.84 1.75 1.89 2.07 1.99 1.94 2.09 2.12 1.92 1.88 1.46 1.04 0.84 0.63 0.57 0.57 0.53 0.51 0.55 0.50 0.46 0.54 0.72 0.64 0.66
2.08 2.32 2.56 2.79 2.93 2.80 2.82 2.87 2.83 2.54 2.43 2.21 1.99 1.77 1.69 1.66 1.80 2.07 1.86 1.95 1.95 1.94 1.92 1.96 2.17 2.16 1.93 1.97 1.68 1.18 0.80 0.56 0.48 0.51 0.56 0.55 0.49 0.54 0.62 0.72 0.78 0.76 0.77
1.88 2.32 2.73 2.69 2.61 2.54 2.75 3.03 3.21 3.18 2.80 2.26 2.04 1.92 1.70 1.63 1.74 1.90 1.93 1.82 1.85 1.89 1.90 1.94 2.08 1.90 1.67 1.81 1.78 1.59 1.03 0.73 0.56 0.50 0.66 0.69 0.64 0.69 0.71 0.70 0.81 0.89 0.92
1.55 1.88 2.01 1.81 1.85 1.84 1.94 2.20 2.39 2.64 2.50 2.20 1.94 1.81 1.71 1.64 1.63 1.70 1.76 1.75 1.76 1.76 1.78 1.91 1.90 1.79 1.60 1.60 1.73 1.81 1.42 1.00 0.74 0.48 0.47 0.56 0.67 0.69 0.68 0.71 0.68 0.74 0.79
1.07 1.05 1.06 1.13 1.23 1.34 1.48 1.72 1.99 2.26 2.23 2.14 2.07 1.82 1.63 1.48 1.41 1.42 1.43 1.46 1.52 1.56 1.66 1.59 1.61 1.74 1.73 1.59 1.66 1.67 1.57 1.46 1.27 0.77 0.51 0.52 0.65 0.69 0.67 0.64 0.65 0.71 0.73
0.90 0.92 0.92 1.02 1.17 1.29 1.40 1.55 1.74 2.09 2.08 1.90 1.76 1.61 1.52 1.44 1.36 1.31 1.32 1.30 1.29 1.33 1.41 1.45 1.62 1.65 1.69 1.63 1.58 1.57 1.62 1.58 1.44 1.17 0.76 0.66 0.65 0.61 0.65 0.68 0.73 0.82 0.91
0.77 0.86 0.92 0.94 1.03 1.11 1.17 1.27 1.32 1.48 1.54 1.45 1.38 1.33 1.26 1.18 1.16 1.20 1.19 1.18 1.18 1.23 1.33 1.36 1.40 1.43 1.46 1.48 1.44 1.42 1.50 1.44 1.36 1.36 1.08 0.94 0.88 0.74 0.77 0.79 0.81 0.85 0.85